Wind_Speed
26 26 29 30 31 32 34 35 34 34 33 37 37 36 36 35 36 36 31 31 20 22 25 27 29 30 31 32 34 33 33 34 33 35 35 33 31 36 37 39 44 33 41
33 32 34 33 34 36 40 41 36 33 35 33 32 34 35 34 38 39 40 37 35 25 22 22 27 29 30 31 33 35 35 36 35 34 35 34 30 31 35 32 31 32 32
30 36 38 37 33 36 23 27 31 33 30 35 34 34 33 34 33 32 34 40 36 23 25 25 24 24 28 30 30 28 29 30 31 29 31 35 37 33 34 36 38 37 38
37 37 38 40 33 33 28 22 27 29 31 30 35 35 37 33 32 29 29 31 39 33 26 27 24 26 32 31 29 26 24 26 27 29 32 34 37 39 41 37 39 42 43
30 33 36 40 32 34 30 29 25 26 30 33 35 37 34 33 30 28 27 28 31 29 26 27 26 33 29 23 21 18 20 23 25 28 32 35 38 40 41 45 44 46 47
31 32 32 41 41 35 35 37 28 23 27 32 34 33 28 28 27 28 29 31 35 32 24 24 32 22 18 17 17 17 20 25 29 31 34 37 40 42 43 45 47 50 49
31 29 40 44 41 31 32 39 34 26 25 31 30 29 30 28 29 32 36 33 33 30 23 25 26 20 16 17 17 19 23 27 31 34 36 39 41 43 45 46 46 48 45
27 21 28 42 39 33 31 36 42 28 29 30 30 29 30 31 34 37 35 35 31 24 22 28 26 19 19 19 17 21 25 30 34 37 41 42 43 43 44 44 45 45 44
25 23 18 30 33 21 21 25 26 27 33 27 25 28 33 35 36 32 32 29 28 26 30 29 23 22 20 20 21 24 29 32 37 43 47 46 44 43 41 40 40 42 45
28 24 20 17 20 16 14 24 26 23 22 23 20 25 25 24 25 28 27 24 24 25 27 24 22 23 22 23 24 29 33 38 45 50 50 45 42 40 38 37 37 38 41
25 28 31 26 18 16 13 17 27 23 17 17 19 20 20 24 22 22 25 27 27 26 23 23 24 24 26 26 29 34 38 44 48 50 45 41 38 35 34 34 35 35 37
28 27 21 24 23 16 12 19 23 34 34 28 33 18 24 23 23 25 26 28 26 23 24 25 26 26 28 28 34 37 41 47 51 46 40 36 35 34 34 32 33 34 37
34 27 22 19 18 17 17 21 26 32 41 39 28 25 18 25 27 29 30 26 24 24 24 25 25 28 29 31 37 39 45 52 51 43 38 36 36 36 37 36 35 34 35
29 31 25 17 24 21 21 23 26 22 27 25 29 27 25 21 21 21 21 22 22 22 23 26 27 27 30 34 37 43 49 52 44 39 37 38 38 36 34 34 34 34 33
35 24 25 24 18 18 26 27 27 23 31 30 21 22 33 38 18 16 18 21 23 23 24 27 28 30 32 35 42 47 47 42 39 38 38 38 39 39 37 35 35 35 35
39 33 25 23 23 20 22 19 29 34 27 28 20 23 21 25 37 40 35 36 43 40 45 38 29 34 37 41 46 45 42 39 37 36 36 38 39 38 39 39 37 36 35
36 36 32 30 25 21 23 23 24 28 37 30 25 25 26 25 27 32 38 36 31 29 29 30 34 37 39 41 41 41 38 38 37 36 35 36 38 37 36 37 38 37 37
32 37 34 34 33 28 22 23 24 25 28 31 34 32 28 28 28 36 41 33 34 33 30 30 32 37 37 39 39 37 37 38 36 37 37 37 37 38 39 37 37 37 37
32 33 33 35 34 30 27 25 28 26 28 34 33 27 26 32 27 33 37 32 25 23 22 27 34 36 36 35 35 35 37 37 36 36 39 40 41 40 41 40 38 36 35
30 31 28 26 24 18 20 25 28 34 33 35 33 36 35 31 33 39 38 26 20 19 25 33 38 39 38 37 37 36 37 39 40 41 42 42 43 42 42 43 42 40 38
31 28 30 25 26 22 27 37 28 35 36 39 41 36 31 39 32 23 22 18 18 25 31 36 37 36 37 37 38 41 42 44 44 45 45 45 47 48 48 48 49 48 46
29 28 28 26 22 25 24 36 38 37 44 43 37 27 37 24 16 16 16 17 18 21 27 31 33 35 37 40 42 43 46 48 50 51 51 51 50 50 50 51 52 53 52
32 32 33 31 22 23 24 33 35 36 32 25 22 21 15 15 16 19 17 18 20 23 27 30 33 36 38 41 43 45 47 48 49 50 52 52 52 51 50 48 49 50 50
34 36 37 34 19 21 23 30 28 23 15 14 14 15 14 13 13 13 16 19 23 27 30 33 35 37 39 41 43 44 45 46 47 48 48 47 47 47 48 46 43 43 43
33 36 34 20 11 18 22 21 18 18 17 14 9 7 9 10 12 16 19 22 26 29 31 34 37 39 41 42 44 47 48 47 46 45 44 43 42 41 39 38 38 38 36
32 29 22 20 13 18 21 18 17 17 15 3 8 8 9 12 16 19 23 25 28 31 34 35 37 38 40 40 40 41 41 41 41 40 42 41 39 37 35 33 30 29 28
Wind_Direction
277 280 280 287 281 279 269 273 269 260 254 249 248 252 256 258 259 260 265 259 263 261 264 258 257 263 268 271 273 273 275 278 276 280 281 282 281 286 289 289 300 292 291
278 278 281 282 280 276 268 264 263 262 253 252 250 252 255 256 257 259 263 266 255 256 264 266 264 261 264 267 268 270 275 274 277 276 278 285 282 277 277 277 282 277 285
283 277 277 279 281 283 270 263 259 266 270 253 257 252 253 250 254 257 259 263 264 258 269 269 272 274 274 274 273 275 274 278 280 285 288 293 295 288 289 285 284 285 283
292 291 282 276 273 274 262 250 263 264 269 259 254 251 256 256 254 251 250 261 259 260 263 275 281 286 282 276 277 278 278 282 288 288 291 294 294 295 295 289 285 285 284
290 289 291 282 271 263 258 256 255 266 266 266 260 260 258 249 248 250 233 243 252 253 275 285 276 277 269 268 273 280 289 296 297 297 297 296 294 295 292 292 291 290 291
292 292 292 287 289 271 257 253 256 261 268 266 261 259 249 247 247 242 226 232 239 252 271 261 272 259 259 271 279 285 292 296 297 299 299 300 300 299 295 294 294 295 294
297 300 292 287 297 277 264 259 257 259 264 269 260 255 247 245 240 229 223 226 234 246 260 264 254 255 266 268 273 284 292 300 303 305 307 306 299 296 295 293 294 296 297
292 302 299 295 299 295 277 261 260 255 260 261 261 252 244 239 235 229 230 226 232 240 260 256 253 253 255 259 273 287 297 303 304 309 308 305 300 294 294 292 295 297 297
282 290 307 290 295 325 324 293 256 248 255 254 250 253 250 246 241 241 237 232 234 239 241 247 248 254 257 271 283 290 297 303 310 314 310 304 300 297 295 294 292 293 296
325 300 286 299 307 288 315 300 271 265 252 238 254 254 257 256 247 241 242 240 244 240 245 245 250 254 266 277 287 299 305 312 313 311 307 303 302 298 297 296 295 292 290
321 316 310 293 305 293 287 291 285 272 289 241 236 255 255 246 243 240 249 247 245 248 250 251 252 264 276 285 293 297 306 310 310 308 304 304 302 301 299 296 294 294 291
322 322 317 308 292 284 300 280 283 273 262 268 258 241 259 247 242 247 249 247 249 250 248 249 259 271 278 288 292 300 306 310 308 304 304 304 303 303 301 299 297 295 294
311 322 306 333 317 296 286 291 269 275 264 266 257 233 254 258 247 240 243 246 244 245 250 259 269 277 286 298 297 304 308 309 306 303 305 304 303 303 301 301 299 295 293
315 312 310 312 309 329 317 294 292 254 236 229 244 244 267 268 257 246 242 244 247 255 266 273 281 290 297 301 305 311 312 308 302 304 305 304 303 301 301 300 298 296 294
299 301 304 305 287 298 314 315 315 293 273 283 280 264 252 237 240 255 254 257 257 267 281 290 294 298 304 309 312 311 308 303 303 304 304 304 303 301 300 298 297 297 296
304 292 285 291 289 295 290 295 307 303 300 271 261 290 255 244 245 247 247 257 262 268 277 285 303 301 310 308 307 306 302 300 301 302 305 304 302 302 303 303 301 299 297
309 307 290 285 289 294 291 287 294 303 287 279 250 241 246 243 228 243 255 258 267 264 279 290 293 299 302 302 302 300 300 301 301 303 302 301 300 301 301 301 302 302 301
309 310 300 290 281 287 293 291 282 294 283 281 269 251 245 263 268 257 266 251 256 261 268 285 295 297 296 298 297 300 301 301 304 304 303 301 300 300 299 298 296 296 296
319 324 310 299 294 287 284 283 282 271 280 280 271 258 247 266 284 266 258 255 264 278 294 303 301 297 298 298 299 299 300 301 302 300 299 299 299 299 297 296 295 294 293
321 325 328 314 308 278 270 273 271 264 274 265 258 249 255 267 254 258 255 253 262 289 309 308 300 301 301 301 301 303 302 300 300 301 301 300 299 297 295 294 292 290 288
317 323 325 322 308 313 267 247 260 263 265 254 251 251 273 272 251 256 261 271 299 301 300 294 298 301 301 304 307 307 305 304 302 300 298 296 294 293 292 291 290 289 287
317 320 317 319 315 306 314 237 233 247 244 237 242 243 263 250 263 277 292 300 303 300 298 301 302 304 306 309 308 305 303 303 302 301 298 297 295 293 291 289 286 285 283
315 316 313 315 304 308 312 248 234 238 234 237 239 246 263 269 288 299 312 303 303 306 304 305 306 308 308 306 304 303 302 302 302 301 300 299 298 296 292 288 285 282 279
306 312 313 312 292 320 290 240 239 243 240 247 251 257 268 300 310 312 304 314 315 312 310 309 309 308 306 305 306 305 305 306 305 303 302 301 300 299 298 295 289 283 279
298 309 317 308 311 319 253 229 229 242 251 256 267 345 343 321 317 319 322 317 313 312 312 313 313 312 313 316 318 318 315 314 313 313 311 308 304 301 298 294 292 288 282
294 310 303 297 293 267 230 223 225 233 247 264 17 340 321 327 329 327 323 321 320 321 322 322 322 324 325 325 325 324 323 321 320 320 319 319 318 316 313 308 300 292 286
Height
3127 3127 3126 3125 3124 3123 3121 3119 3118 3121 3122 3122 3124 3126 3127 3129 3130 3132 3133 3131 3133 3134 3135 3134 3135 3136 3136 3137 3136 3134 3134 3133 3134 3133 3132 3133 3134 3133 3133 3132 3131 3131 3128
3120 3118 3116 3113 3112 3111 3110 3110 3110 3111 3112 3114 3116 3117 3119 3120 3122 3123 3124 3125 3123 3125 3126 3126 3126 3127 3128 3129 3128 3127 3126 3125 3125 3124 3122 3122 3125 3123 3122 3120 3121 3119 3117
3108 3105 3103 3102 3101 3100 3099 3099 3102 3104 3104 3107 3108 3110 3110 3112 3113 3115 3116 3117 3118 3114 3120 3121 3121 3118 3119 3120 3120 3120 3119 3118 3117 3116 3116 3112 3112 3112 3113 3111 3109 3108 3105
3098 3096 3093 3090 3093 3093 3092 3091 3094 3094 3097 3098 3099 3102 3104 3104 3107 3108 3109 3109 3109 3099 3111 3115 3112 3111 3112 3112 3113 3113 3112 3112 3111 3109 3107 3106 3103 3101 3097 3102 3100 3097 3094
3088 3086 3086 3083 3085 3084 3084 3083 3083 3086 3088 3089 3091 3094 3095 3097 3099 3100 3100 3100 3101 3105 3106 3105 3104 3107 3107 3107 3107 3107 3106 3106 3105 3103 3101 3098 3095 3093 3087 3082 3083 3082 3081
3082 3080 3078 3076 3075 3075 3074 3074 3074 3076 3079 3082 3083 3085 3087 3089 3090 3090 3090 3090 3093 3096 3100 3099 3101 3100 3100 3101 3101 3101 3100 3100 3099 3098 3095 3091 3087 3083 3078 3073 3069 3065 3066
3077 3073 3068 3067 3066 3065 3066 3065 3066 3067 3069 3074 3075 3078 3079 3080 3080 3079 3078 3081 3085 3090 3092 3094 3094 3093 3093 3095 3095 3095 3095 3093 3091 3089 3085 3082 3078 3074 3069 3063 3058 3053 3052
3072 3069 3063 3060 3059 3057 3057 3056 3058 3060 3063 3064 3068 3069 3069 3071 3070 3070 3073 3074 3077 3080 3083 3087 3087 3086 3087 3088 3087 3087 3086 3085 3083 3080 3076 3072 3068 3063 3059 3054 3049 3043 3040
3065 3063 3058 3056 3052 3049 3050 3049 3050 3053 3054 3057 3059 3062 3062 3062 3062 3067 3067 3066 3069 3073 3074 3077 3079 3080 3080 3080 3079 3078 3077 3075 3072 3069 3065 3061 3057 3052 3048 3045 3041 3035 3028
3061 3057 3055 3051 3050 3046 3046 3047 3048 3047 3049 3049 3051 3054 3056 3057 3060 3063 3064 3057 3065 3067 3070 3071 3073 3074 3073 3072 3071 3070 3068 3064 3061 3058 3054 3048 3045 3041 3038 3035 3032 3028 3021
3056 3053 3051 3049 3045 3043 3041 3042 3044 3043 3044 3043 3043 3049 3051 3053 3053 3056 3057 3060 3063 3063 3064 3065 3067 3067 3067 3064 3062 3061 3058 3056 3053 3048 3043 3038 3034 3031 3028 3025 3022 3019 3014
3055 3050 3047 3044 3041 3039 3037 3038 3038 3038 3038 3039 3041 3041 3051 3050 3049 3051 3052 3054 3056 3057 3058 3058 3059 3060 3058 3056 3053 3051 3049 3047 3044 3038 3032 3027 3024 3020 3017 3015 3012 3010 3006
3050 3049 3045 3041 3038 3034 3033 3035 3034 3033 3026 3023 3034 3037 3042 3046 3045 3045 3047 3047 3049 3051 3052 3052 3053 3053 3051 3047 3044 3042 3040 3037 3032 3026 3021 3018 3015 3011 3008 3005 3002 3000 2997
3045 3043 3043 3037 3036 3032 3031 3030 3029 3028 3025 3019 3030 3034 3037 3041 3039 3041 3040 3042 3044 3046 3046 3046 3046 3043 3041 3039 3036 3033 3030 3026 3021 3016 3011 3008 3005 3002 2999 2996 2993 2990 2987
3039 3038 3035 3033 3029 3028 3026 3024 3024 3017 3019 3018 3022 3021 3025 3026 3034 3034 3037 3037 3038 3039 3039 3038 3036 3034 3032 3029 3027 3024 3020 3016 3011 3006 3001 2998 2994 2991 2989 2987 2984 2981 2977
3030 3030 3028 3025 3025 3023 3022 3020 3018 3017 3016 3008 3016 3016 3019 3023 3026 3028 3029 3029 3030 3030 3029 3028 3027 3025 3023 3021 3018 3015 3012 3007 3002 2998 2993 2989 2987 2982 2978 2974 2972 2969 2967
3023 3020 3020 3018 3016 3017 3017 3015 3013 3012 3009 3009 3008 3012 3015 3016 3018 3022 3023 3022 3022 3024 3025 3022 3021 3019 3017 3012 3008 3005 3001 2996 2992 2988 2984 2980 2976 2973 2970 2965 2961 2958 2954
3018 3014 3011 3009 3009 3009 3009 3009 3008 3009 3008 3006 3005 3005 3010 3011 3013 3013 3015 3014 3012 3011 3011 3013 3011 3010 3008 3003 2999 2994 2990 2986 2982 2978 2975 2971 2967 2963 2960 2956 2953 2950 2945
3013 3008 3004 3002 3000 3000 3001 3001 3002 3002 3003 3003 3003 3004 3005 3006 3005 3005 3005 3004 3004 3005 3005 3004 3003 3000 2997 2993 2990 2985 2980 2976 2972 2968 2963 2960 2956 2953 2949 2945 2942 2940 2936
3008 3004 3000 2996 2993 2993 2993 2994 2995 2996 2997 2999 3000 2999 2997 2996 2997 2996 2996 2996 2998 2997 2995 2996 2995 2989 2985 2982 2979 2975 2970 2967 2964 2960 2955 2949 2944 2941 2937 2932 2929 2926 2925
3003 3000 2995 2992 2989 2986 2987 2987 2990 2991 2993 2993 2993 2990 2990 2991 2989 2991 2991 2991 2989 2989 2988 2987 2983 2978 2976 2972 2967 2962 2959 2953 2951 2947 2944 2939 2933 2928 2924 2919 2914 2911 2910
2997 2994 2990 2987 2984 2982 2980 2980 2982 2986 2984 2982 2982 2981 2985 2984 2986 2986 2986 2985 2983 2982 2981 2978 2975 2971 2966 2961 2957 2953 2948 2941 2935 2931 2927 2923 2917 2913 2908 2903 2899 2895 2892
2991 2987 2983 2981 2979 2978 2976 2976 2977 2979 2979 2979 2980 2980 2981 2980 2981 2980 2981 2981 2979 2976 2974 2970 2967 2962 2957 2953 2948 2943 2937 2932 2925 2918 2911 2905 2899 2894 2891 2887 2882 2878 2875
2985 2981 2977 2973 2972 2971 2971 2973 2976 2978 2979 2978 2974 2976 2977 2978 2977 2976 2977 2975 2972 2969 2966 2962 2957 2953 2949 2943 2938 2931 2925 2918 2913 2906 2899 2892 2886 2879 2873 2869 2866 2862 2858
2979 2976 2971 2969 2967 2968 2968 2971 2973 2976 2976 2972 2974 2973 2975 2975 2974 2974 2971 2969 2967 2963 2959 2954 2949 2944 2939 2932 2924 2916 2910 2904 2897 2890 2884 2878 2873 2867 2862 2857 2851 2846 2844
2973 2970 2968 2965 2965 2966 2967 2969 2970 2971 2970 2970 2972 2975 2975 2973 2971 2969 2967 2964 2960 2956 2951 2946 2941 2935 2929 2923 2916 2909 2901 2894 2886 2880 2872 2865 2859 2853 2848 2843 2839 2836 2832